Location: Haliburton Scout Reserve
(45.0900°N, 78.3200°W)
Time: 06:26:03
(UTC-04:00)

AO-85 - Visible Passes

Search period start: 22 May 2022 00:00
Search period end: 01 June 2022 00:00
Orbit: 498 x 777 km, 64.8° (Epoch: 18 May)

Date Brightness Start Highest point End Pass type
(mag) Time Alt. Az. Time Alt. Az. Time Alt. Az.
22 May ? 04:13:40 10° NNW 04:17:43 27° NE 04:21:28 10° E visible
22 May ? 21:47:36 10° WSW 21:52:38 40° NW 21:57:31 10° NNE visible
22 May ? 23:32:15 10° NW 23:34:20 12° NNW 23:36:24 10° N visible
23 May ? 02:57:32 10° N 02:59:46 13° NNE 03:01:56 10° NE visible
23 May ? 04:36:41 10° NNW 04:41:17 51° NE 04:45:28 10° SE visible
23 May ? 22:12:02 10° W 22:16:18 24° NW 22:20:25 10° NNE visible
24 May ? 03:20:08 10° NNW 03:23:41 20° NE 03:27:00 10° E visible
24 May ? 22:37:07 10° WNW 22:40:09 15° NNW 22:43:07 10° N visible
25 May ? 02:04:37 10° N 02:05:33 10° NNE 02:06:29 10° NNE visible
25 May ? 03:43:02 10° NNW 03:47:22 35° NE 03:51:21 10° ESE visible
25 May ? 21:17:33 10° WSW 21:22:17 31° NW 21:26:51 10° NNE visible
25 May ? 23:03:20 10° NNW 23:04:12 10° NNW 23:05:04 10° N visible
26 May ? 02:26:41 10° N 02:29:33 16° NNE 02:32:17 10° ENE visible
26 May ? 04:06:08 10° NNW 04:10:49 71° NE 04:15:02 10° SE visible
26 May ? 21:42:14 10° W 21:46:00 19° NW 21:49:40 10° NNE visible
27 May ? 02:49:25 10° NNW 02:53:22 25° NE 02:57:01 10° E visible
27 May ? 04:29:31 10° NW 04:33:58 51° WSW 04:38:02 10° SSE visible
27 May ? 22:07:39 10° NW 22:09:56 13° NNW 22:12:11 10° N visible
28 May ? 01:33:23 10° N 01:35:21 12° NNE 01:37:16 10° NE visible
28 May ? 03:12:24 10° NNW 03:16:56 46° NE 03:21:03 10° ESE visible
28 May ? 04:53:24 10° WNW 04:56:52 22° WSW 05:00:07 10° SSW visible
29 May ? 01:55:52 10° NNW 01:59:15 19° NE 02:02:27 10° E visible
29 May ? 03:35:36 10° NW 03:40:14 82° WSW 03:44:26 10° SSE visible
30 May ? 02:18:43 10° NNW 02:22:57 32° NE 02:26:50 10° ESE visible
30 May ? 03:59:08 10° NW 04:03:16 35° WSW 04:07:03 10° S visible
30 May ? 21:38:28 10° NW 21:39:42 11° NNW 21:40:55 10° N visible
31 May ? 01:02:24 10° N 01:05:04 15° NNE 01:07:37 10° ENE visible
31 May ? 02:41:45 10° NNW 02:46:23 65° NE 02:50:14 12° SE visible
31 May ? 04:23:30 10° WNW 04:26:02 15° WSW 04:27:37 13° SW visible
